Regional Weather Roundup
Issued by NWS Cleveland, OH

Home | Current Version | Previous Version | Graphics & Text | Print | Product List | Glossary Off
Versions: 1 2 3 4 5 6 7 8 9 10 11 12 13 14 15 16 17 18 19 20 21 22 23 24 25 26 27 28 29 30 31 32 33 34 35 36 37 38 39 40 41 42 43 44 45 46 47 48 49 50

000
ASUS41 KCLE 242202
RWRCLE
OHIO REGIONAL WEATHER ROUNDUP
NATIONAL WEATHER SERVICE CLEVELAND, OH
600 PM EDT MON APR 24 2017

NOTE: "FAIR" INDICATES FEW OR NO CLOUDS BELOW 12,000 FEET WITH NO
SIGNIFICANT WEATHER AND/OR OBSTRUCTIONS TO VISIBILITY.

OHZ001>008-015>018-024>027-034-035-043-044-242300-
   NORTHWEST OHIO

CITY           SKY/WX    TMP DP  RH WIND       PRES   REMARKS
DEFIANCE       SUNNY     67  36  31 NE12G22   29.89F
FINDLAY        SUNNY     69  36  29 NE16G25   29.87F
TOLEDO EXPRESS SUNNY     62  37  39 NE15      29.92F
TOLEDO EXEC    SUNNY     60  40  47 E16G22    29.94F
LIMA           MOSUNNY   71  40  32 NE14G26   29.85F
$$

OHZ009>014-019>023-028>033-038-089-242300-
   NORTHEAST OHIO

CITY           SKY/WX    TMP DP  RH WIND       PRES   REMARKS
CLE-HOPKINS    PTSUNNY   69  44  40 NE10      29.93F
CLE-LAKEFRONT  SUNNY     55  47  74 NE15G24   29.91F
CUY CO. ARPT   MOSUNNY   72  32  23 E14       29.93F
LORAIN-ELYRIA  SUNNY     65  41  41 NE12      29.91F
ASHTABULA      SUNNY     61  43  51 N9        29.98R
AKRON-CANTON   CLOUDY    67  44  43 SE16G23   29.94S
WOOSTER        MOSUNNY   68  47  46 SE16      29.93S
MANSFIELD      MOSUNNY   69  48  47 E18G25    29.90F
YOUNGSTOWN     PTSUNNY   66  42  41 SE17G23   29.97R
$$

OHZ042-051>053-060>062-070>072-077>081-242300-
  SOUTHWEST OHIO

CITY           SKY/WX    TMP DP  RH WIND       PRES   REMARKS
CINC-COVINGTON PTSUNNY   70  52  52 E17       29.80F
CINC-LUNKEN    PTSUNNY   69  55  60 E13       29.81S
HAMILTON       SUNNY     71  54  54 E15G21    29.82S
DAYTON         PTSUNNY   70  51  51 E18G28    29.83F
WRIGHT-PAT AFB PTSUNNY   72  52  49 E15       29.83F
DAYTON GENERAL SUNNY     71  52  50 E15       29.81F
WILMINGTON     CLOUDY    65  52  62 E12G22    29.84F
$$

OHZ036-037-039>041-045>050-054>059-063>069-073>076-082>088-242300-
  CENTRAL AND SOUTHEAST OHIO

CITY           SKY/WX    TMP DP  RH WIND       PRES   REMARKS
COLUMBUS       PTSUNNY   66  50  56 E16G25    29.88F
OSU AIRPORT    CLOUDY    65  51  60 E17G24    29.88R
BOLTON FIELD   CLOUDY    64  50  59 E17G24    29.88S
RICKENBACK AFB CLOUDY    64  51  62 E18G24    29.87F
NEWARK         CLOUDY    64  46  52 E18G25    29.89F
MARION         CLOUDY    71  49  45 SE17G28   29.88S
LANCASTER      CLOUDY    63  52  67 E15       29.89F
ZANESVILLE     CLOUDY    59  48  67 E15G21    29.93S
NEW PHILLY     NOT AVBL
$$




USA.gov is the U.S. government's official web portal to all federal, state and local government web resources and services.